Flag for Germany Weather past 2 weeks in Limburg an der Lahn, Hesse, Germany

Now
59 °F

Passing clouds.


Feels Like: 59 °F
Forecast: 52 / 62 °F
Wind: 1 mph from North

Location: Wiesbaden Airport

Current Time: Aug 30, 2014 at 4:58:19 AM

Latest Report: Aug 30, 2014 at 3:58 AM


Visibility: N/A

Pressure: 30.06 "Hg

Humidity: 92%

Dew point: 57 °F

Location of Limburg an der LahnLocation

Historic Weather in Limburg an der Lahn — Graph

°F

Limburg an der Lahn temperature yesterday

Maximum temperature yesterday: 75 °F (at 4:58 PM)
Minimum temperature yesterday: 59 °F (at 4:58 AM)
Average temperature yesterday: 67 °F

Past Weeks' High & Low Weather Summary

 TemperatureHumidityPressure
High75 °F (Aug 29, 4:58 PM)100% (Aug 15, 3:58 AM)30.14 "Hg (Aug 15, 3:58 AM)
Low45 °F (Aug 22, 6:58 AM)43% (Aug 21, 6:58 PM)29.66 "Hg (Aug 26, 8:04 AM)
Average59 °F78%29.96 "Hg
* Reported Aug 15 2:58 AM — Aug 30 2:58 AM, Limburg an der Lahn, Weather by CustomWeather, © 2014

Note: Actual official high and low records may vary slightly from our data, if they occured in-between our weather recording intervals... More about our weather records

Advertising

Limburg an der Lahn weather history for previous 24 hours

 ConditionsComfort  
Time TempWeatherWind HumidityBarometerVisibility
2:58 AM
Aug 30
60 °FPassing clouds.No wind93%30.06 "HgN/A
1:58 AM63 °FPartly cloudy.3 mph88%30.07 "HgN/A
12:58 AM63 °FMostly cloudy.2 mph88%30.05 "HgN/A
11:58 PM
Aug 29
63 °FPassing clouds.No wind87%30.06 "HgN/A
10:58 PM64 °FPassing clouds.3 mph83%30.03 "HgN/A
8:58 PM68 °FSunny.10 mph73%30.01 "HgN/A
7:58 PM71 °FScattered clouds.2 mph63%29.98 "HgN/A
6:58 PM73 °FSunny.7 mph61%29.98 "HgN/A
5:58 PM74 °FSunny.6 mph58%29.98 "HgN/A
4:58 PM75 °FPassing clouds.7 mph53%29.99 "HgN/A
3:58 PM74 °FScattered clouds.10 mph53%30.01 "HgN/A
2:58 PM74 °FPassing clouds.9 mph54%30.01 "HgN/A
1:04 PM72 °FPartly sunny.6 mph61%30.04 "HgN/A
12:58 PM72 °FScattered clouds.7 mph61%30.03 "HgN/A
11:58 AM69 °FPassing clouds.5 mph71%30.03 "HgN/A
11:04 AM68 °FPartly sunny.6 mph73%30.04 "HgN/A
10:58 AM68 °FBroken clouds.3 mph78%30.03 "HgN/A
9:58 AM65 °FBroken clouds.7 mph81%30.03 "HgN/A
8:58 AM64 °FPartly sunny.5 mph83%30.01 "HgN/A
7:58 AM63 °FSunny.5 mph85%29.99 "HgN/A
6:58 AM61 °FPartly cloudy.6 mph97%29.99 "HgN/A
5:58 AM61 °FOvercast.2 mph94%29.98 "HgN/A
4:58 AM59 °FPassing clouds.3 mph99%29.98 "HgN/A
Weather by CustomWeather, © 2014

See weather overviewHow to use our weather pages